#timestamp,LO_Frequency,Hit 
1500480015.0,286046941.3,N
1500480015.9,286046941.3,N
1500480035.8,286046943.6,N
1500480055.6,286046941.1,N
1500480075.4,286046941.1,N
1500480095.3,286046941.1,N
1500480115.1,286046943.1,N
1500480135.8,286046941.0,N
1500480155.7,286046940.8,N
1500480175.5,286046939.0,N
1500480195.3,286046939.0,N
1500480215.2,286046941.7,N
1500480235.9,286046942.6,N
1500480255.7,286046943.0,N
1500480275.6,286046942.4,N
1500480295.4,286046940.9,N
1500480315.2,286046942.7,N
1500480335.1,286046943.5,N
1500480336.0,286046943.5,N
1500480355.8,286046944.9,N
1500480375.6,286046942.1,N
1500480395.5,286046940.6,N
1500480415.3,286046943.5,N
1500480435.1,286046944.8,N
1500480455.9,286046940.9,N
1500480475.7,286046941.1,N
1500480495.5,286046941.0,N
1500480515.3,286046941.2,N
1500480535.2,286046939.0,N
1500480555.0,286046942.0,N
1500480555.9,286046942.0,N
1500480575.7,286046941.2,N
1500480595.6,286046943.4,N
1500480615.4,286046943.3,N
1500480635.2,286046943.0,N
1500480655.1,286046941.0,N
1500480656.0,286046941.0,N
1500480675.8,286046943.2,N
1500480695.6,286046941.0,N
1500480715.5,286046941.6,N
1500480735.3,286046939.4,N
1500480755.1,286046940.9,N
1500480775.9,286046943.6,N
1500480795.7,286046943.1,N
1500480815.5,286046942.4,N
1500480835.4,286046945.1,N
1500480855.2,286046945.1,N
1500480875.0,286046945.0,N
1500480875.9,286046945.0,N
1500480895.8,286046943.2,N
1500480915.6,286046940.7,N
1500480935.4,286046940.7,N
1500480955.3,286046943.4,N
1500480975.1,286046940.6,N
1500480976.0,286046940.6,N
1500480995.8,286046940.8,N
1500481015.7,286046941.5,N
1500481035.5,286046942.9,N
1500481055.3,286046942.6,N
1500481075.1,286046944.5,N
1500481095.9,286046942.9,N
1500481115.7,286046943.0,N
1500481135.5,286046941.5,N
1500481155.4,286046939.5,N
1500481175.2,286046939.3,N
1500481195.0,286046941.0,N
1500481195.9,286046941.0,N
1500481215.8,286046941.1,N
1500481235.6,286046940.6,N
1500481255.4,286046941.0,N
1500481275.3,286046943.6,N
1500481295.1,286046941.0,N
1500481315.8,286046941.4,N
1500481335.7,286046939.6,N
1500481355.5,286046938.9,N
1500481375.3,286046941.4,N
1500481395.2,286046939.5,N
1500481415.9,286046939.3,N
1500481435.7,286046941.9,N
1500481455.6,286046940.6,N
1500481475.4,286046940.9,N
1500481495.2,286046938.9,N
1500481515.1,286046940.7,N
1500481516.0,286046940.7,N
1500481535.8,286046941.7,N
1500481555.6,286046941.9,N
1500481575.5,286046941.9,N
1500481595.3,286046942.9,N
1500481615.1,286046944.7,N
1500481635.8,286046944.8,N
1500481655.7,286046942.4,N
1500481675.5,286046942.2,N
1500481695.3,286046942.9,N
1500481715.2,286046944.6,N
1500481735.0,286046945.0,N
1500481735.9,286046945.0,N
1500481755.7,286046944.5,N
1500481775.6,286046944.5,N
1500481795.4,286046942.3,N
1500481815.2,286046943.1,N
1500481835.1,286046942.8,N
1500481836.0,286046942.8,N
1500481855.8,286046940.5,N
1500481875.6,286046943.3,N
1500481895.5,286046944.7,N
1500481915.3,286046944.6,N
1500481935.1,286046944.5,N
1500481955.9,286046945.1,N
1500481975.7,286046941.0,N
1500481995.5,286046939.1,N
1500482015.4,286046940.4,N
1500482035.2,286046937.3,N
1500482055.0,286046942.0,N
1500482055.9,286046942.0,N
1500482075.8,286046940.7,N
1500482095.6,286046943.0,N
1500482115.4,286046940.8,N
1500482135.3,286046943.2,N
1500482155.1,286046942.6,N
1500482156.0,286046942.6,N
1500482175.8,286046942.9,N
1500482195.7,286046941.1,N
1500482215.5,286046939.0,N
1500482235.3,286046937.3,N
1500482255.1,286046940.4,N
1500482275.9,286046937.5,N
1500482295.7,286046940.4,N
1500482315.5,286046939.1,N
1500482335.4,286046939.7,N
1500482355.2,286046939.5,N
1500482375.0,286046939.6,N
1500482375.9,286046939.6,N
1500482395.8,286046940.0,N
1500482415.6,286046937.8,N
1500482435.4,286046939.0,N
1500482455.3,286046939.1,N
1500482475.1,286046941.1,N
1500482495.8,286046940.9,N
1500482515.7,286046941.3,N
1500482535.5,286046939.6,N
1500482555.3,286046939.7,N
1500482575.2,286046941.5,N
1500482595.9,286046937.5,N
1500482615.7,286046938.2,N
1500482635.6,286046937.4,N
1500482655.4,286046938.9,N
1500482675.2,286046940.6,N
1500482695.0,286046940.5,N
1500482696.0,286046940.5,N
1500482715.8,286046940.9,N
1500482735.6,286046939.3,N
1500482755.4,286046939.4,N
1500482775.3,286046941.3,N
1500482795.1,286046941.2,N
1500482815.8,286046940.9,N
1500482835.7,286046940.9,N
1500482855.5,286046938.9,N
1500482875.3,286046939.8,N
1500482895.2,286046942.0,N
1500482915.0,286046939.4,N
1500482915.9,286046939.4,N
1500482935.7,286046939.3,N
1500482955.6,286046941.8,N
1500482975.4,286046941.9,N
1500482995.2,286046939.2,N
1500483015.1,286046937.4,N
1500483016.0,286046937.4,N
1500483035.8,286046940.2,N
1500483055.6,286046939.1,N
1500483075.5,286046938.0,N
1500483095.3,286046939.3,N
1500483115.1,286046938.9,N
1500483135.9,286046939.3,N
1500483155.7,286046938.2,N
1500483175.5,286046935.8,N
1500483195.4,286046936.2,N
1500483215.2,286046937.8,N
1500483235.0,286046936.0,N
1500483235.9,286046936.0,N
1500483255.8,286046937.6,N
1500483275.6,286046937.8,N
1500483295.4,286046941.6,N
1500483315.3,286046939.9,N
1500483335.1,286046940.0,N
1500483336.0,286046940.0,N
1500483355.8,286046939.3,N
1500483375.7,286046940.4,N
1500483395.5,286046935.7,N
1500483415.3,286046938.2,N
1500483435.2,286046936.0,N
1500483455.9,286046936.0,N
1500483475.7,286046936.5,N
1500483495.6,286046935.8,N
1500483515.4,286046939.1,N
1500483535.2,286046941.1,N
1500483555.1,286046941.2,N
1500483556.0,286046941.2,N
1500483575.8,286046941.9,N
1500483595.6,286046937.7,N
